Weather in Kuzkino

Russia / Samara Oblast     53°31′56″N   48°42′53″E
temp.,
°C
wind,
m/s
gust,
m/s
humid.,
%
clouds,
%
prec.,
mm/h
press.,
hPa
HPBL,
m
25 february, thu
thu2501:00−26wnw229397 0.0 103620
04:00−25w229198 0.0 103619
07:00−24ssw128898 0.0 103520
10:00−21ssw468999 0.0 1033227
13:00−18s61090100 0.0 1030338
16:00−17s71296100 0.7 1026449
19:00−16s71395100 1.1 1023594
22:00−15s71395100 2.4 1021571
26 february, fri
fri2601:00−13s71295100 0.8 1017491
04:00−12s61095100 1.4 1016391
07:00−11s489599 0.4 1014265
10:00−10s479699 0.6 1014281
13:00−7s4695100 0.2 1012273
16:00−5s5996100 0.5 1011284
19:00−5s61096100 1.0 1007252
22:000s61298100 3.1 1003386
27 february, sat
sat2701:00+2sw715100100 4.1 998553
04:00+2w61495100 4.3 998601
07:00+1wsw6139099 0.1 998789
10:000wsw6129097 0.1 999798
13:00+1wsw51110097 0.1 998629
16:00+1wsw5109594 0.2 998642
19:00−2wsw499286 0.0 998193
22:00−1wsw5119793 0.4 999464
28 february, sun
sun2801:00−4nnw5893100 0.4 999313
04:00−10nnw51090100 0.5 1002444
07:00−13nnw6119198 0.1 1004403
10:00−14nnw6109087 0.1 1006441
13:00−12nnw698999 0.0 1008549
16:00−12nnw6987100 0.0 1010596
19:00−16nnw4119191 0.0 1012392
22:00−16nnw499486 0.0 1015268
1 march, mon
mon101:00−17nnw369596 0.0 1016134
04:00−19nw479583 0.0 1018150
07:00−19nnw499563 0.0 1020234
10:00−17nnw599165 0.0 1021379
13:00−14nnw588977 0.0 1022468
16:00−13nnw478873 0.0 1023473
19:00−17nnw349222 0.0 102448
22:00−18wnw239711 0.0 102420